Regional Weather Roundup
Issued by NWS Grand Forks, ND

Home | Current Version | Previous Version | Graphics & Text | Print | Product List | Glossary On
Versions: 1 2 3 4 5 6 7 8 9 10 11 12 13 14 15 16 17 18 19 20 21 22 23 24 25 26 27 28 29 30 31 32 33 34 35 36 37 38 39 40 41 42 43 44 45 46 47 48 49 50
000
ASUS43 KFGF 261310
RWRFGF
PRAIRIE TO PINES  WEATHER ROUNDUP
NATIONAL WEATHER SERVICE EASTERN NORTH DAKOTA/GRAND FORKS ND
800 AM CDT SUN MAR 26 2017

 **SATELLITE DATA USED TO AUGMENT SKY COVER AT AUTOMATED STATIONS**
 *****  WEATHER ACROSS EASTERN NORTH DAKOTA  *****

CITY           SKY/WX    TMP DP  RH WIND       PRES   REMARKS
GRAND FORKS    CLOUDY    34  33  96 S10       29.94F
GRAND FRKS AFB CLOUDY    33  33  99 S8        29.94F
DEVILS LAKE    CLOUDY    33  32  96 CALM      29.93R FOG
FARGO          CLOUDY    35  34  96 CALM      29.98S FOG
WAHPETON ARPT    N/A     34  32  93 E3        29.99S
$$

 ***** WEATHER ACROSS CENTRAL AND WESTERN NORTH DAKOTA  *****

CITY           SKY/WX    TMP DP  RH WIND       PRES   REMARKS
BISMARCK       CLOUDY    37  34  89 E6        29.93S
MINOT          FAIR      35  32  88 SE3       29.89S
JAMESTOWN      FOG       34  34 100 SW5       29.93F VSB 3/4
MINOT AFB      FAIR      34  32  92 CALM      29.89R
GARRISON         N/A     35  32  88 N5        29.90R
WILLISTON      FAIR      31  28  89 CALM      29.90R
DICKINSON      CLOUDY    37  33  85 SW3       29.88S
HETTINGER      CLOUDY    40  35  83 NE5       29.92R
$$

 *****  OTHER AIRPORT OBSERVATIONS IN OUR AREA  *****

CITY           SKY/WX    TMP DP  RH WIND       PRES   REMARKS
WALHALLA       NOT AVBL
GRAFTON AIRPOR PTSUNNY   34  34 100 S7        29.96S FOG
VALLEY CITY AR FOG       32  32 100 S5        29.96S VSB 1/4
CANDO          NOT AVBL
CAVALIER APRT    N/A     34  32  93 S7        29.93F FOG
GWINNER        CLOUDY    34  34 100 MISG      29.97R FOG
SHEYENNE NWR     N/A     34  34 100 E2        29.95
ROLLA          FAIR      32  32 100 CALM      29.91R
 ***** THE ABOVE OBSERVATIONS ARE NON NWS ARE NOT QUALITY
       CONTROLLED AND MAY MIS-REPORT RAIN FOR SNOW...
$$

  *****  WEATHER ACROSS NORTHERN MINNESOTA  *****

CITY           SKY/WX    TMP DP  RH WIND       PRES   REMARKS
FLAG ISLAND    CLOUDY    30  28  93 S14       29.97S WCI  20
WARROAD        CLOUDY    32  28  86 S6        29.98S
ROSEAU         CLOUDY    34  30  86 S8        29.97S
HALLOCK        CLOUDY    34  34 100 S10       29.95S FOG
THF RVR FALLS  CLOUDY    33  30  88 S8        29.98F
BAUDETTE       CLOUDY    32  29  88 SE7       29.98F
WASKISH        CLOUDY    32  30  93 CALM      30.00S
CROOKSTON      CLOUDY    34  34 100 S6        29.98F
GREENBUSH NDAW   N/A     34  34 100 S7          N/A
$$
  *****  WEATHER ACROSS CENTRAL AND WEST MINNESOTA  *****

CITY           SKY/WX    TMP DP  RH WIND       PRES   REMARKS
FOSSTON        CLOUDY    30  30 100 CALM      29.98F
BEMIDJI        CLOUDY    32  31  96 SE3       29.99S
PARK RAPIDS    CLOUDY    33  29  85 E5        29.98S
ELBOW LAKE     CLOUDY    33  33  99 NE5       29.98S
WADENA         CLOUDY    32  30  93 NE3       29.98S
DETROIT LAKES  CLOUDY    34  32  93 SE5       29.99S
MOORHEAD       CLOUDY    34  32  93 CALM      29.99F FOG
FERGUS FALLS   CLOUDY    36  30  80 E6        30.01F
MORRIS MN      CLOUDY    36  34  93 NE6       29.96S
STAPLES        CLOUDY    34  28  80 N3        29.98S
$$
  *****  WEATHER ELSEWHERE ACROSS MINNESOTA  *****

CITY           SKY/WX    TMP DP  RH WIND       PRES   REMARKS
DULUTH         FRZ DRZL  32  32 100 E8        29.98S FOG     WCI  25
INTRNTL FALLS  CLOUDY    32  28  85 SE6       30.00F
ELY            CLOUDY    30  28  93 CALM      30.01S
CLOQUET        CLOUDY    32  30  93 E5        29.98S FOG
WHEATON        FOG       36  34  93 CALM      30.00S VSB 3/4
BRAINERD       CLOUDY    33  31  92 NE5       29.98S
HIBBING        CLOUDY    31  30  96 CALM      29.99S
ALEXANDRIA     CLOUDY    34  30  85 NE5       29.97S
SAINT CLOUD    LGT RAIN  33  33 100 N5        29.98R FOG
MINNEAPOLIS    CLOUDY    37  33  85 VRB6      29.95S
$$

  *****  WEATHER ACROSS SOUTH DAKOTA  *****

CITY           SKY/WX    TMP DP  RH WIND       PRES   REMARKS
SIOUX FALLS    CLOUDY    38  37  97 N5        29.92S FOG
BROOKINGS      MIX PCPN  35  35 100 NE7       29.92S FOG
WATERTOWN      CLOUDY    34  34 100 NE5       29.93S FOG
HURON          CLOUDY    38  38 100 E6        29.94R
SISSETON         N/A     35  35 100 CALM      29.97R
ABERDEEN       CLOUDY    35  33  92 E6        29.95R FOG
MITCHELL       FOG       38  38 100 E6        29.93S VSB 3/4
PIERRE         CLOUDY    40  37  89 E6        29.90R
MOBRIDGE       CLOUDY    40  36  86 CALM      29.91R
RAPID CITY     LGT RAIN  40  35  83 N22       29.84R
$$

  *****  SOME WEATHER IN NEARBY STATES *****

CITY           SKY/WX    TMP DP  RH WIND       PRES   REMARKS
GLASGOW MT     FAIR      32  26  78 NW12      29.89S WCI  23
GREAT FALLS MT FAIR      33  22  63 SW10      29.92R WCI  25
CHEYENNE WY    CLOUDY    38  34  85 N14       29.85R
SCOTTSBLUFF NE CLOUDY    41  30  65 CALM      29.82R
OMAHA NE       CLOUDY    40  37  89 N6        29.90S
DES MOINES IA  FOG       41  40  96 N5        29.86R VSB 3/4
DAVENPORT IA   FOG       48  47  96 E5        29.82R VSB<1/4
CHICAGO IL     HVY RAIN  50  47  89 E3        29.85S VSB 1
EAU CLAIRE WI  CLOUDY    35  34  96 NE5       29.93F
LA CROSSE WI   RAIN      37  36  96 N7        29.91S FOG
$$

  *****  SOME NATIONAL WEATHER *****

CITY           SKY/WX    TMP DP  RH WIND       PRES   REMARKS
LA GUARDIA NY  CLOUDY    40  33  76 E15       30.45R
RALEIGH NC     PTSUNNY   58  53  84 S3        30.25R
ATLANTA GA     FAIR      60  59  96 SE8       30.11R
NEW ORLEANS LA CLOUDY    69  67  93 VRB3      30.02R FOG
OKLAHOMA CITY  MOCLDY    45  42  89 SE8       29.87F
ALBUQUERQUE NM FAIR      38  27  64 E7        29.92R
SALT LAKE CITY FAIR      34  32  92 SE7       30.02R
LOS ANGELES CA FAIR      56  53  90 CALM      30.02S
BOISE ID       FAIR      40  27  59 SE10      29.95S
SEATTLE WA     CLOUDY    44  38  79 SE6       29.87F
$$

*** WEATHER ACROSS MANITOBA...SASKATCHEWAN AND ONTARIO ***
                ***ONTARIO***

CITY           SKY/WX    TMP DP  RH WIND       PRES   REMARKS
GERALDTON      PTSUNNY   21   9  58 E5        30.10F WCI  15
THUNDER BAY    CLOUDY    34  28  80 E7        30.06F
SIOUX LOOKOUT  MOCLDY    28  25  86 S8        29.98F WCI  20
TORONTO        CLOUDY    36  34  93 E15G25    30.20S
BIG TROUT LK   CLOUDY    28  14  54 S13G18    29.90F WCI  18
PICKLE LAKE    CLOUDY    27  18  69 S10       29.98F WCI  17
DRYDEN         CLOUDY    30  27  86 S10       29.97S WCI  21
KENORA         CLOUDY    30  28  93 S8        29.96S WCI  23
$$
                *** MANITOBA***

CITY           SKY/WX    TMP DP  RH WIND       PRES   REMARKS
BRANDON        PTCLDY    30  28  93 N7        29.91F WCI  23
DAUPHIN        CLOUDY    32  30  93 E2        29.94R
ISLAND LAKE    CLOUDY    34  32  93 W9        29.82S
PILOT MOUND      N/A     32  30  93 SW3         N/A
THE PAS        CLOUDY    16  12  86 NW12      29.96S FOG     WCI   3
THOMPSON       CLOUDY    19  16  86 NW13      29.82R WCI   7
WINNIPEG       MOCLDY    32  32 100 S7        29.94R
LYNN LAKE      CLEAR      9   7  92 NW7       29.89R WCI  -3
CHURCHILL      LGT SNOW  14  10  85 E15       29.95R DRFTSNOWWCI  -1
GILLAM         LGT SNOW  28  27  93 NE3       29.72S
$$
                ***SASKATCHEWAN***

CITY           SKY/WX    TMP DP  RH WIND       PRES   REMARKS
ESTEVAN        PTCLDY    32  30  93 S6        29.90R
KINDERSLEY     FOG       23  23 100 E8        29.79R VSB 1/4 WCI  14
LLOYDMINSTER   MOCLDY    28  28 100 SE7       29.85R FOG     WCI  21
PRINCE ALBERT  FLURRIES  28  27  93 E7        29.92R WCI  21
REGINA         MOCLDY    34  32  93 S7        29.87R
YORKTON        CLOUDY    32  32 100 SE3       29.90S
N. BATTLEFORD  MOCLDY    28 N/A N/A E5        29.88R WCI  23
LA RONGE       MOCLDY    18  16  93 NE2       29.95R
SASKATOON      CLOUDY    30  28  93 NE12G17   29.87R WCI  21
SWIFT CURRENT  CLEAR     34  23  64 SW14      29.83R WCI  24
$$
NOTE: THESE ARE AUTOMATED STATIONS WITH LIMITED QUALITY CONTROL
      "FAIR" INDICATES FEW OR NO CLOUDS BELOW 12,000 FEET WITH NO
      SIGNIFICANT WEATHER AND/OR OBSTRUCTIONS TO VISIBILITY.
      SKY/WX - SKY CONDITION AND SIGNIFICANT WEATHER.
      TMP - AIR TEMPERATURE.    DP   - DEWPOINT TEMPERATURE.
      RH  - RELATIVE HUMIDITY.  PRES - PRESSURE.
      HX  - HEAT INDEX.         WCI  - WIND CHILL INDEX.
$




USA.gov is the U.S. government's official web portal to all federal, state and local government web resources and services.